Pocatello, ID

11:26 AM MST on November 20, 2017 (GMT -0700)
Pocatello Regional

Weather History for KPIH - January, 2012

Change the Weather History Date:

Sunday, January 22, 2012

  Actual Average Record
Temperature  
Mean Temperature 31 °F 25 °F  
Max Temperature 35 °F 33 °F 49 °F (1994)
Min Temperature 26 °F 16 °F -30 °F (1962)
Degree Days  
Heating Degree Days 34 40  
Month to date heating degree days 802 900  
Since 1 July heating degree days 3706 3885  
Cooling Degree Days 0 0  
Month to date cooling degree days 0 0  
Year to date cooling degree days 0 0  
Moisture  
Dew Point 20 °F    
Average Humidity 63    
Maximum Humidity 78    
Minimum Humidity 47    
Precipitation  
Precipitation 0.00 in 0.03 in 0.35 in (1972)
Month to date precipitation 1.35 0.74  
Year to date precipitation 1.35 0.74  
Snow  
Snow 0.00 in - - ()
Month to date snowfall 0.6  
Since 1 July snowfall 7.0  
Snow Depth 0.00 in    
Sea Level Pressure  
Sea Level Pressure 30.02 in    
Wind  
Wind Speed 17 mph (SSW)    
Max Wind Speed 31 mph    
Max Gust Speed 39 mph    
Visibility 10 miles    
Events      
T = Trace of Precipitation, MM = Missing Value Source: NWS Daily Summary

Daily Weather History Graph

Daily Weather History Graph

Search for Another Location

Airport or City:

Trip Planner

Search our weather history database for the weather conditions in past years. The results will help you decide how hot, cold, wet, or windy it might be!

Date:

Astronomy

Jan. 22, 2012 Rise Set
Actual Time 7:54 AM MST 5:29 PM MST
Civil Twilight 7:23 AM MST 6:00 PM MST
Nautical Twilight 6:49 AM MST 6:35 PM MST
Astronomical Twilight 6:15 AM MST 7:08 PM MST
Moon 7:13 AM MST (1/22) 5:16 PM MST (1/22)
Length of Visible Light 10h 36m
Length of Day
9h 35m
Waning Crescent, 0% of the Moon is Illuminated
Jan 22
Waning Crescent
Jan 23
New
Jan 30
First Quarter
Feb 7
Full
Feb 14
Last Quarter

Hourly Weather History & Observations

Time (MST) Temp. Windchill Dew Point Humidity Pressure Visibility Wind Dir Wind Speed Gust Speed Precip Events Conditions
12:53 AM 30.9 °F 19.4 °F 25.0 °F 79% 29.81 in 10.0 mi West 17.3 mph 25.3 mph N/A   Overcast
1:53 AM 30.0 °F 17.2 °F 23.0 °F 75% 29.86 in 10.0 mi WSW 20.7 mph 31.1 mph N/A   Clear
2:53 AM 30.0 °F 17.5 °F 24.1 °F 79% 29.90 in 10.0 mi WSW 19.6 mph 26.5 mph N/A   Mostly Cloudy
3:53 AM 28.9 °F 16.9 °F 23.0 °F 78% 29.93 in 10.0 mi SW 17.3 mph - N/A   Overcast
4:53 AM 28.0 °F 15.3 °F 21.9 °F 78% 29.96 in 10.0 mi WSW 18.4 mph 26.5 mph N/A   Mostly Cloudy
5:04 AM 28.4 °F 13.8 °F 21.2 °F 74% 29.91 in 10.0 mi WSW 25.3 mph 35.7 mph N/A   Scattered Clouds
5:53 AM 28.0 °F 12.5 °F 21.0 °F 75% 29.99 in 10.0 mi SW 28.8 mph 38.0 mph N/A   Clear
6:53 AM 27.0 °F 13.2 °F 19.9 °F 75% 30.04 in 10.0 mi SW 20.7 mph 29.9 mph N/A   Clear
7:53 AM 26.1 °F 12.7 °F 19.0 °F 75% 30.06 in 10.0 mi SW 18.4 mph - N/A   Partly Cloudy
8:53 AM 27.0 °F 14.7 °F 19.0 °F 72% 30.08 in 10.0 mi SSW 16.1 mph - N/A   Partly Cloudy
9:53 AM 28.9 °F 19.2 °F 19.9 °F 69% 30.11 in 10.0 mi SW 11.5 mph - N/A   Clear
10:53 AM 33.1 °F 23.4 °F 17.1 °F 52% 30.10 in 10.0 mi WSW 13.8 mph - N/A   Partly Cloudy
11:53 AM 34.0 °F 22.7 °F 17.1 °F 50% 30.10 in 10.0 mi SW 19.6 mph 24.2 mph N/A   Partly Cloudy
12:53 PM 35.1 °F 25.9 °F 18.0 °F 50% 30.10 in 10.0 mi WSW 13.8 mph - N/A   Partly Cloudy
1:53 PM 34.0 °F 24.6 °F 18.0 °F 52% 30.10 in 10.0 mi SW 13.8 mph 19.6 mph N/A   Mostly Cloudy
2:53 PM 34.0 °F 24.6 °F 19.0 °F 54% 30.08 in 10.0 mi South 13.8 mph - N/A   Mostly Cloudy
3:53 PM 33.1 °F 24.4 °F 17.1 °F 52% 30.09 in 10.0 mi South 11.5 mph 20.7 mph N/A   Mostly Cloudy
4:53 PM 33.1 °F 23.4 °F 18.0 °F 54% 30.07 in 10.0 mi South 13.8 mph - N/A   Mostly Cloudy
5:53 PM 32.0 °F 20.8 °F 18.0 °F 56% 30.07 in 10.0 mi South 17.3 mph - N/A   Overcast
6:53 PM 32.0 °F 20.1 °F 19.0 °F 59% 30.07 in 10.0 mi South 19.6 mph 26.5 mph N/A   Overcast
7:53 PM 32.0 °F 21.2 °F 19.0 °F 59% 30.06 in 10.0 mi South 16.1 mph 25.3 mph N/A   Overcast
8:53 PM 33.1 °F 21.5 °F 19.0 °F 56% 30.04 in 10.0 mi South 19.6 mph 26.5 mph N/A   Overcast
9:53 PM 33.1 °F 22.2 °F 19.0 °F 56% 30.02 in 10.0 mi South 17.3 mph 27.6 mph N/A   Overcast
10:53 PM 33.1 °F 22.6 °F 19.0 °F 56% 30.02 in 10.0 mi South 16.1 mph 21.9 mph N/A   Overcast
11:53 PM 34.0 °F 24.6 °F 19.0 °F 54% 30.01 in 10.0 mi South 13.8 mph 19.6 mph N/A   Overcast